IRS P2

导读

IRS P2是印度(IN)于1994年10月15日08:00发射的遥感卫星,隶属于印度遥感卫星系列。该卫星主要用于地球资源观测与环境监测,搭载光学遥感载荷,可获取陆地地表图像数据,服务于农业估产、森林调查、地质勘探、国土资源管理等领域,是印度在90年代推进自主遥感卫星应用的重要任务,推动了印度空间遥感技术的实用化发展。

Basic Information
目录编号:
23323
目录名称:
IRS P2
国际标识:
1994-068A
轨道中心:
EARTH
卫星名称:
IRS P2
卫星全名:
--
卫星状态:
在轨 (已飞行11595 天)
发射日期:
1994-10-15 UTC
国别 :
印度 (IN)
星等 :
--
Orbit Information
数据来源 国际轨道数据 AOE轨道数据
星历时间 2026-07-14T10:23:11+0800
8小时前
查看轨道信息
2026-07-12T23:00:00+0800
1天前
查看轨道信息
半长轴 7187.726km 7187.724km
偏心率 0.0001214 0.0001051
轨道倾角 98.893° 98.893°
近地点辐角 90.016° 84.321°
升交点赤经 245.978° 244.485°
平近点角 270.115° 277.929°
近地点 808.716km 808.831km
远地点 810.462km 810.343km
周期 101.076分钟 101.076分钟
每日圈数 14.246741 14.246748
Detailed Information
使用方式:
暂无
2D Orbit Map
3D Orbit Map
Orbit Altitude Analysis Chart
Orbit Inclination Analysis Chart
Orbit Comprehensive Analysis Chart
View Comprehensive Chart